This is the latest recevied weather packets stored in our database for station/object KC1OEK-13. If no packets are shown the sender has not sent any weather packets the latest 10 day(s).
| Time | Temp. | Humidity | Pressure | Rain* | Wind** | Luminosity | Snow |
|---|---|---|---|---|---|---|---|
| 1778154923 | 8.33° C | 76% | 1011.6 hPa | 0 mm | - | 178 W/m² | - |
| 1778154618 | 8.33° C | 79% | 1011.9 hPa | 0 mm | - | 70 W/m² | - |
| 1778154315 | 8.33° C | 80% | 1011.7 hPa | 0 mm | - | 50 W/m² | - |
| 1778154012 | 8.33° C | 81% | 1011.8 hPa | 0 mm | - | 52 W/m² | - |
| 1778153709 | 7.78° C | 84% | 1011.9 hPa | 0 mm | - | 56 W/m² | - |
| 1778153406 | 7.78° C | 89% | 1011.6 hPa | 0 mm | - | 55 W/m² | - |
| 1778153104 | 8.33° C | 94% | 1011.7 hPa | 0 mm | - | 70 W/m² | - |
| 1778152800 | 7.78° C | 94% | 1011.5 hPa | 0 mm | - | 88 W/m² | - |
| 1778152498 | 7.78° C | 94% | 1011.7 hPa | 0 mm | - | 69 W/m² | - |
| 1778152194 | 7.78° C | 94% | 1011.6 hPa | 0 mm | - | 45 W/m² | - |
| 1778151890 | 7.22° C | 95% | 1011.5 hPa | 0 mm | - | 40 W/m² | - |
| 1778151587 | 7.22° C | 96% | 1011.6 hPa | 0 mm | - | 38 W/m² | - |
| 1778151284 | 7.22° C | 96% | 1011.6 hPa | 0 mm | - | 36 W/m² | - |
| 1778150980 | 7.22° C | 95% | 1011.3 hPa | 0 mm | - | 33 W/m² | - |
| 1778150678 | 7.22° C | 96% | 1011.4 hPa | 0 mm | - | 29 W/m² | - |
| 1778150373 | 7.78° C | 96% | 1011.4 hPa | 0 mm | - | 27 W/m² | - |
| 1778150070 | 7.78° C | 96% | 1011.2 hPa | 0 mm | - | 27 W/m² | - |
| 1778149766 | 7.78° C | 96% | 1011.1 hPa | 0 mm | - | 30 W/m² | - |
| 1778149463 | 7.78° C | 96% | 1011 hPa | 0 mm | - | 17 W/m² | - |
| 1778149159 | 7.78° C | 96% | 1010.7 hPa | 0 mm | - | 18 W/m² | - |
| 1778148854 | 7.78° C | 97% | 1011 hPa | 0 mm | - | 11 W/m² | - |
| 1778148551 | 7.22° C | 98% | 1010.7 hPa | 0 mm | - | 8 W/m² | - |
| 1778148249 | 7.78° C | 99% | 1010.6 hPa | 0 mm | - | 7 W/m² | - |
| 1778147947 | 7.78° C | 99% | 1010.6 hPa | 0 mm | - | 5 W/m² | - |
| 1778147644 | 7.78° C | 99% | 1010.6 hPa | 0 mm | - | 4 W/m² | - |
* Rain latest hour (hover to see other rain measurements)
** Current wind speed in m/s (hover to see current wind gust speed)